Notices

What's New in latest Release from April 7th, 2021:

- Updated Glossary, including Speed of Maximum Gust, and Total Hourly Precipitation

- Updated national and regional climate services offices contacts and prices information

- Addition of station inventory lists for 1981-2010, 1971-2000, and 1961-1990 Normals.

If you haven't already, please take our survey and provide feedback about our website: https://eccc.sondage-survey.ca/f/LanguageSelection.aspx?s=442ca660-fcf1-47c0-95a9-59707d6fd709

Hourly Data Report for November 06, 2020

CARBERRY CS
MANITOBA
Current Station Operator: ECCC - MSC

49°54'20.900" N
99°21'26.800" W
383.50 m
5010547
71170
WZE

Download Data

Hourly Data (November 2020)
Hourly Data Report for November 6, 2020
TIME
LST
Temp Definition
°C
Dew Point Definition
°C
Rel Hum Definition
%
Precip. Amount Definition
mm

Wind Dir Definition
10's deg

Wind Spd Definition
km/h
Visibility Definition
km
Stn Press Definition
kPa
Hmdx Definition


Wind Chill Definition


Weather Definition


00:00 6.7 0.5 65 0.0 28 12   96.04     LegendNANA
01:00 8.1 2.4 68 0.0 25 11   96.14     LegendNANA
02:00 3.7 0.0 77 0.0 2 9   96.25     LegendNANA
03:00 0.3 0.2 100 0.0 4 14   96.39     LegendNANA
04:00 0.4 0.4 100 0.0 5 16   96.45     LegendNANA
05:00 0.5 0.4 100 0.0 4 19   96.53     LegendNANA
06:00 0.5 -0.3 95 0.0 4 13   96.59     LegendNANA
07:00 0.1 -1.0 92 0.0 2 11   96.59     LegendNANA
08:00 -0.3 -1.7 90 0.0 3 14   96.61   -5 LegendNANA
09:00 0.8 -2.8 77 0.0 3 20   96.61     LegendNANA
10:00 1.4 -2.0 78 0.0 5 17   96.60     LegendNANA
11:00 0.7 -1.9 83 0.0 5 21   96.64     LegendNANA
12:00 0.6 -2.2 81 0.0 3 23   96.72     LegendNANA
13:00 0.4 -2.3 82 0.0 3 20   96.75     LegendNANA
14:00 1.8 -3.0 71 0.0 3 23   96.68     LegendNANA
15:00 0.0 -3.1 80 0.0 3 25   96.71   -6 LegendNANA
16:00 -0.7 -3.6 81 0.0 4 21   96.73   -6 LegendNANA
17:00 -1.7 -3.9 85 0.0 2 18   96.71   -7 LegendNANA
18:00 -2.2 -4.3 85 0.0 3 19   96.80   -8 LegendNANA
19:00 -2.5 -4.7 85 0.0 3 20   96.89   -8 LegendNANA
20:00 -3.0 -5.3 85 0.0 2 15   96.89   -8 LegendNANA
21:00 -3.3 -5.5 85 0.0 2 16   96.84   -9 LegendNANA
22:00 -3.7 -5.6 86 0.0 2 17   96.85   -9 LegendNANA
23:00 -3.9 -5.5 89 0.0 3 20   96.81   -10 LegendNANA

Notes on Data Quality.

Legend

  • E = Estimated
  • M = Missing
  • NA = Not Available*
  • [empty] = Indicates an unobserved value
Date modified: